DEGTL EDDH-EDDH

Flight info

Callsign DEGTL
Flight time 0h 6m
Altitude 2000
Route CPT L9 DIDZA N14 BIBPE DCT OKTAD DCT MEDOG DCT KRAGY DCT PEMOB DCT VATRY DCT RESNO/M081F370 DCT 55N020W 54N030W 51N040W 48N050W DCT NICSO/N0465F400 DCT SUTKO DCT AGMIR DCT TUSKY DCT EURRO OOSHN5
Aircraft C182/L-V/N

Departure

Time 2026-05-05 14:45
Airport Hamburg Helmut Schmidt Airport (EDDH)

Arrival

Time 2026-05-05 14:51
Airport Hamburg Helmut Schmidt Airport (EDDH)
Time Latitude Longitude Altitude Speed Heading
2026-05-05 14:32 53.62617 9.99014 42 ft 0 kts 62°
2026-05-05 14:39 53.62618 9.99014 42 ft 0 kts 62°
2026-05-05 14:39 53.62617 9.99014 42 ft 0 kts 62°
2026-05-05 14:41 53.62618 9.99014 42 ft 0 kts 62°
2026-05-05 14:41 53.62618 9.99015 42 ft 1 kts 62°
2026-05-05 14:41 53.62623 9.98985 42 ft 4 kts 242°
2026-05-05 14:42 53.62595 9.98981 42 ft 7 kts 176°
2026-05-05 14:42 53.62547 9.98954 42 ft 10 kts 279°
2026-05-05 14:42 53.62529 9.98777 42 ft 20 kts 258°
2026-05-05 14:42 53.62536 9.98580 42 ft 17 kts 342°
2026-05-05 14:43 53.62654 9.98498 42 ft 18 kts 336°
2026-05-05 14:43 53.62739 9.98469 40 ft 3 kts 354°
2026-05-05 14:43 53.62740 9.98469 40 ft 0 kts 355°
2026-05-05 14:44 53.62741 9.98469 40 ft 2 kts 359°
2026-05-05 14:44 53.62817 9.98496 39 ft 24 kts 15°
2026-05-05 14:44 53.63043 9.98828 44 ft 68 kts 50°
2026-05-05 14:44 53.63406 9.99514 274 ft 84 kts 49°
2026-05-05 14:45 53.63659 10.00371 566 ft 91 kts 97°
2026-05-05 14:45 53.63147 10.01081 856 ft 104 kts 151°
2026-05-05 14:45 53.62390 10.01595 1020 ft 122 kts 159°
2026-05-05 14:45 53.61734 10.00889 1325 ft 133 kts 243°
2026-05-05 14:46 53.61304 9.99543 1314 ft 127 kts 243°
2026-05-05 14:46 53.60877 9.98256 1317 ft 124 kts 234°
2026-05-05 14:46 53.60225 9.97542 1305 ft 112 kts 180°
2026-05-05 14:46 53.59661 9.98225 1277 ft 104 kts 96°
2026-05-05 14:47 53.60016 9.99173 1329 ft 100 kts 20°
2026-05-05 14:47 53.60409 9.98369 1345 ft 120 kts 267°
2026-05-05 14:47 53.60017 9.97164 1416 ft 121 kts 233°
2026-05-05 14:47 53.59486 9.96061 1447 ft 119 kts 230°
2026-05-05 14:48 53.58934 9.95028 1346 ft 118 kts 228°
2026-05-05 14:48 53.58379 9.94010 1312 ft 117 kts 229°
2026-05-05 14:48 53.57901 9.92937 1307 ft 113 kts 233°
2026-05-05 14:48 53.57423 9.91879 1314 ft 112 kts 236°
2026-05-05 14:49 53.57224 9.90696 1288 ft 112 kts 288°
2026-05-05 14:49 53.57836 9.89765 1209 ft 121 kts 347°
2026-05-05 14:49 53.58707 9.90188 1038 ft 147 kts 34°
2026-05-05 14:49 53.59455 9.91520 755 ft 163 kts 50°
2026-05-05 14:50 53.60164 9.92957 676 ft 153 kts 51°
2026-05-05 14:50 53.60780 9.94278 411 ft 125 kts 52°
2026-05-05 14:50 53.61239 9.95171 318 ft 84 kts 50°
2026-05-05 14:50 53.61564 9.95819 194 ft 61 kts 54°
2026-05-05 14:51 53.61815 9.96333 123 ft 54 kts 52°
2026-05-05 14:51 53.62037 9.96803 65 ft 50 kts 47°
2026-05-05 14:51 53.62250 9.97226 36 ft 43 kts 51°
2026-05-05 14:51 53.62463 9.97652 62 ft 63 kts 50°
2026-05-05 14:52 53.62823 9.98347 203 ft 94 kts 50°
2026-05-05 14:52 53.63296 9.99328 332 ft 119 kts 51°
2026-05-05 14:52 53.63773 10.00428 514 ft 110 kts 75°
2026-05-05 14:52 53.63491 10.01587 696 ft 118 kts 137°
2026-05-05 14:53 53.62734 10.01980 918 ft 116 kts 193°
2026-05-05 14:53 53.62081 10.00929 903 ft 148 kts 229°
2026-05-05 14:53 53.61361 9.99608 990 ft 159 kts 227°
2026-05-05 14:53 53.60635 9.98219 1137 ft 154 kts 228°
2026-05-05 14:54 53.60000 9.96903 1092 ft 140 kts 238°
2026-05-05 14:54 53.59808 9.95484 993 ft 128 kts 293°
2026-05-05 14:54 53.60502 9.94607 752 ft 140 kts
2026-05-05 14:54 53.61393 9.95521 239 ft 168 kts 45°
2026-05-05 14:55 53.62136 9.96990 79 ft 157 kts 52°
2026-05-05 14:55 53.62800 9.98346 72 ft 144 kts 51°
2026-05-05 14:55 53.63418 9.99599 268 ft 134 kts 54°
2026-05-05 14:55 53.63530 10.00974 543 ft 127 kts 119°
2026-05-05 14:56 53.62798 10.01437 685 ft 114 kts 193°
2026-05-05 14:56 53.62212 10.00626 671 ft 102 kts 232°
2026-05-05 14:56 53.61652 10.00056 691 ft 98 kts 179°
2026-05-05 14:56 53.61118 10.00604 774 ft 88 kts 106°
2026-05-05 14:57 53.61221 10.01517 866 ft 88 kts 47°
2026-05-05 14:57 53.61839 10.01558 778 ft 106 kts 319°
2026-05-05 14:57 53.61792 10.00360 715 ft 116 kts 230°
2026-05-05 14:57 53.61165 9.99506 861 ft 123 kts 215°
2026-05-05 14:58 53.60403 9.98593 890 ft 142 kts 212°
2026-05-05 14:58 53.59535 9.97788 1041 ft 145 kts 197°
2026-05-05 14:58 53.58558 9.97312 1133 ft 139 kts 193°
2026-05-05 14:58 53.57639 9.97038 1212 ft 132 kts 176°
2026-05-05 14:59 53.56745 9.97229 1250 ft 130 kts 167°
2026-05-05 14:59 53.55885 9.97668 1120 ft 130 kts 153°
2026-05-05 14:59 53.55043 9.98331 888 ft 130 kts 152°
2026-05-05 14:59 53.54233 9.98972 745 ft 126 kts 143°
2026-05-05 15:00 53.53464 9.99666 781 ft 127 kts 151°
2026-05-05 15:00 53.52926 10.00050 834 ft 127 kts 156°
2026-05-05 15:00 53.51759 10.00104 892 ft 128 kts 176°
2026-05-05 15:00 53.50819 10.00124 689 ft 141 kts 174°
2026-05-05 15:01 53.49831 10.00165 620 ft 140 kts 174°
2026-05-05 15:01 53.48889 10.00199 622 ft 130 kts 175°
2026-05-05 15:01 53.48001 10.00146 577 ft 127 kts 188°
2026-05-05 15:01 53.47168 9.99698 528 ft 118 kts 195°
2026-05-05 15:02 53.46401 9.99279 638 ft 116 kts 191°
2026-05-05 15:02 53.45704 9.98731 833 ft 100 kts 222°
2026-05-05 15:02 53.45233 9.97960 982 ft 94 kts 219°
2026-05-05 15:02 53.44542 9.97769 758 ft 111 kts 187°
2026-05-05 15:03 53.43863 9.97148 779 ft 113 kts 212°
2026-05-05 15:03 53.43146 9.96554 708 ft 111 kts 192°
2026-05-05 15:03 53.42487 9.95934 792 ft 117 kts 222°
2026-05-05 15:03 53.41982 9.94790 891 ft 126 kts 240°
2026-05-05 15:04 53.41618 9.93455 995 ft 128 kts 250°
2026-05-05 15:04 53.41200 9.92230 1358 ft 109 kts 232°
2026-05-05 15:04 53.40759 9.91267 1604 ft 112 kts 233°
2026-05-05 15:04 53.40226 9.90058 1530 ft 141 kts 234°
2026-05-05 15:05 53.38847 9.87491 1526 ft 152 kts 224°
2026-05-05 15:05 53.38085 9.86258 1521 ft 152 kts 223°
2026-05-05 15:05 53.37430 9.84916 1471 ft 149 kts 250°
2026-05-05 15:06 53.37508 9.83250 1373 ft 144 kts 295°
2026-05-05 15:06 53.37521 9.81586 1268 ft 150 kts 251°
2026-05-05 15:06 53.37290 9.79899 1218 ft 149 kts 266°
2026-05-05 15:06 53.37484 9.78234 1130 ft 146 kts 295°
2026-05-05 15:07 53.37860 9.76655 1082 ft 146 kts 294°
2026-05-05 15:07 53.38220 9.75061 1011 ft 146 kts 294°
2026-05-05 15:07 53.38610 9.73539 984 ft 138 kts 304°
2026-05-05 15:07 53.39171 9.72279 989 ft 135 kts 311°
2026-05-05 15:08 53.39730 9.70992 995 ft 138 kts 310°
2026-05-05 15:08 53.40294 9.69707 996 ft 139 kts 310°
2026-05-05 15:08 53.40875 9.68390 996 ft 139 kts 310°
2026-05-05 15:08 53.41440 9.67097 997 ft 140 kts 310°
2026-05-05 15:09 53.42018 9.65781 1000 ft 140 kts 310°
2026-05-05 15:09 53.42656 9.64567 990 ft 138 kts 323°
2026-05-05 15:09 53.43400 9.63560 991 ft 137 kts 324°
2026-05-05 15:09 53.44134 9.62535 991 ft 137 kts 324°
2026-05-05 15:10 53.44867 9.61504 990 ft 138 kts 324°
2026-05-05 15:10 53.45603 9.60468 994 ft 138 kts 324°
2026-05-05 15:10 53.46342 9.59430 990 ft 138 kts 324°
2026-05-05 15:10 53.47076 9.58391 991 ft 138 kts 324°
2026-05-05 15:11 53.47811 9.57356 992 ft 138 kts 324°
2026-05-05 15:11 53.48550 9.56325 992 ft 141 kts 324°
2026-05-05 15:11 53.49350 9.55233 1005 ft 154 kts 323°
2026-05-05 15:11 53.50201 9.54071 1006 ft 160 kts 324°
2026-05-05 15:12 53.51077 9.52881 1003 ft 162 kts 324°
2026-05-05 15:12 53.51956 9.51682 1005 ft 163 kts 324°
2026-05-05 15:12 53.52601 9.51087 972 ft 159 kts 348°
2026-05-05 15:12 53.53082 9.51061 968 ft 156 kts 11°
2026-05-05 15:13 53.54013 9.51602 793 ft 125 kts 24°
2026-05-05 15:13 53.54860 9.52097 352 ft 127 kts 17°
2026-05-05 15:13 53.55611 9.51955 422 ft 94 kts 342°
2026-05-05 15:13 53.56009 9.51408 425 ft 70 kts 298°
2026-05-05 15:14 53.56004 9.50440 118 ft 91 kts 286°
2026-05-05 15:14 53.56166 9.49626 77 ft 61 kts 296°
2026-05-05 15:14 53.56102 9.48908 153 ft 83 kts 216°
2026-05-05 15:14 53.55537 9.48840 419 ft 78 kts 152°
2026-05-05 15:15 53.55444 9.49541 383 ft 75 kts 40°
2026-05-05 15:15 53.55749 9.49869 260 ft 64 kts 90°
2026-05-05 15:15 53.56012 9.50388 181 ft 74 kts 322°
2026-05-05 15:15 53.56174 9.49607 65 ft 45 kts 291°
2026-05-05 15:16 53.56200 9.49294 62 ft 16 kts 209°
2026-05-05 15:16 53.56149 9.49448 68 ft 22 kts 112°
2026-05-05 15:16 53.56102 9.49686 71 ft 20 kts 111°
2026-05-05 15:16 53.56055 9.49869 69 ft 9 kts 152°
2026-05-05 15:17 53.56050 9.49881 72 ft 0 kts 30°